Weather History for Kingston, Jamaica

Change the Weather History Date:

Tuesday, October 23, 2012

  Actual Average Record
Temperature  
Mean Temperature 78 °F -  
Max Temperature 80 °F 85 °F 91 °F (1997)
Min Temperature 75 °F 76 °F 73 °F (2010)
Cooling Degree Days 12    
Growing Degree Days 28 (Base 50)    
Moisture  
Dew Point 74 °F    
Average Humidity 91    
Maximum Humidity 100    
Minimum Humidity 78    
Precipitation  
Precipitation 1.02 in - - ()
Sea Level Pressure  
Sea Level Pressure 29.69 in    
Wind  
Wind Speed 16 mph ()    
Max Wind Speed 101 mph    
Max Gust Speed -    
Visibility 5.8 miles    
Events Rain    
Averages and records for this station are not official NWS values.
T = Trace of Precipitation, MM = Missing Value Source: Averaged Metar Reports

Daily Weather History Graph

Daily Weather History Graph

Search for Another Location

Airport:

Trip Planner

Search our weather history database for the weather conditions in past years. The results will help you decide how hot, cold, wet, or windy it might be!

Date:

Astronomy

Oct. 23, 2012 Rise Set
Actual Time 6:03 AM EST 5:39 PM EST
Civil Twilight 5:40 AM EST 6:01 PM EST
Nautical Twilight 5:15 AM EST 6:27 PM EST
Astronomical Twilight 4:49 AM EST 6:52 PM EST
Moon 1:37 PM EST (10/23) 12:42 AM EST (10/23)
Length of Visible Light 12h 20m
Length of Day
11h 36m
Waxing Gibbous, 67% of the Moon is Illuminated
Oct 23
Waxing Gibbous
Oct 29
Full
Nov 6
Last Quarter
Nov 13
New
Nov 20
First Quarter

Hourly Weather History & Observations

Time (EST) Temp. Dew Point Humidity Pressure Visibility Wind Dir Wind Speed Gust Speed Precip Events Conditions
12:00 AM 78.8 °F 77.0 °F 94% 29.74 in - SE 23.0 mph - N/A Rain Light Rain Showers
1:00 AM 77 °F 76 °F 95% 29.75 in 9 mi East 18.4 mph - - Rain Light Rain
1:00 AM 77.0 °F 75.2 °F 94% 29.74 in - East 18.4 mph - N/A Rain Light Rain
2:00 AM 75.2 °F 73.4 °F 94% 29.68 in - ESE 12.7 mph - N/A Rain Light Rain
3:00 AM 77.0 °F 73.4 °F 89% 29.68 in - NNE 5.8 mph - N/A Rain Light Rain
4:00 AM 78.8 °F 73.4 °F 83% 29.65 in - NW 5.8 mph - N/A   Mostly Cloudy
5:00 AM 77.0 °F 71.6 °F 83% 29.68 in 6.2 mi NNE 88.6 mph - N/A   Mostly Cloudy
6:00 AM 78.8 °F 75.2 °F 89% 29.68 in 6.2 mi North 8.1 mph - N/A   Overcast
7:00 AM 79 °F 74 °F 79% 29.73 in 14 mi Calm Calm - -   Partly Cloudy
7:00 AM 78.8 °F 73.4 °F 83% 29.71 in 6.2 mi North 101.3 mph - N/A   Mostly Cloudy
7:25 AM 75.2 °F 75.2 °F 100% 29.74 in - North - - N/A   Squalls
8:00 AM 75.2 °F 73.4 °F 94% 29.74 in - ESE 16.1 mph - N/A   Overcast
8:29 AM 75.2 °F 73.4 °F 94% 29.74 in - East 6.9 mph - N/A   Mostly Cloudy
9:00 AM 77.0 °F 73.4 °F 89% 29.74 in - NNE 20.7 mph - N/A Rain Light Rain Showers
9:14 AM 75.2 °F 75.2 °F 100% 29.74 in - East 16.1 mph - N/A Rain Heavy Rain Showers
10:00 AM 75.2 °F 71.6 °F 89% 29.74 in - East 6.9 mph - N/A Rain Light Rain
10:42 AM 77.0 °F 69.8 °F 78% 29.74 in 2.5 mi ENE 5.8 mph - N/A Rain Light Rain
11:00 AM 75.2 °F 73.4 °F 94% 29.74 in 2.5 mi North 8.1 mph - N/A Rain Light Rain
12:00 PM 77.0 °F 75.2 °F 94% 29.71 in - NNE 5.8 mph - N/A Rain Light Rain
1:00 PM 79 °F 77 °F 90% 29.67 in 9 mi Calm Calm - - Rain Light Rain
1:00 PM 78.8 °F 77.0 °F 94% 29.65 in - NNW 5.8 mph - N/A Rain Light Rain
1:26 PM 78.8 °F 73.4 °F 83% 29.65 in - WSW 3.5 mph - N/A Rain Light Rain Showers
1:38 PM 77.0 °F 73.4 °F 89% 29.65 in - SE 20.7 mph - N/A Rain Light Rain Showers
2:00 PM 77.0 °F 75.2 °F 94% 29.65 in 2.8 mi ESE 16.1 mph - N/A Rain Rain Showers
3:00 PM 75.2 °F 73.4 °F 94% 29.65 in 1.9 mi ESE 15.0 mph - N/A Rain Heavy Rain Showers
4:00 PM 75 °F 71 °F 84% 29.66 in 3 mi East 12.7 mph - - Rain Rain
4:00 PM 75.2 °F 71.6 °F 89% 29.65 in - East 11.5 mph - N/A Rain Rain
5:00 PM 75.2 °F 71.6 °F 89% 29.65 in - East 8.1 mph - N/A Rain Rain
6:00 PM 75.2 °F 73.4 °F 94% 29.65 in 3.7 mi North 4.6 mph - N/A Rain Light Rain
7:00 PM 75 °F 75 °F 100% 29.68 in 2 mi East 12.7 mph - - Rain Rain
7:00 PM 75.2 °F 75.2 °F 100% 29.68 in - East 17.3 mph - N/A Rain Rain
8:00 PM 75.2 °F 73.4 °F 94% 29.68 in - East 10.4 mph - N/A Rain Light Rain
9:00 PM 75.2 °F 73.4 °F 94% 29.68 in 6.2 mi North 9.2 mph - N/A Rain Light Rain
10:00 PM 77 °F 73 °F 83% 29.65 in 12 mi Calm Calm - - Rain Light Rain
10:00 PM 77.0 °F 73.4 °F 89% 29.65 in - NNE 2.3 mph - N/A   Overcast
11:00 PM 77.0 °F 75.2 °F 94% 29.62 in 6.2 mi NW 6.9 mph - N/A Rain Light Rain